Temp
9 9 9 8 9 8 8 8 8 7 6 5 5 5 4 5 5 6 7 7 7 8 8 9 10 11 12
8 8 8 8 8 7 8 7 6 6 5 4 5 4 4 4 5 5 6 7 7 7 9 9 11 11 12
7 7 7 7 7 7 7 6 6 5 5 5 4 4 4 4 5 5 6 7 7 7 9 10 11 12 12
8 7 6 6 6 6 5 5 5 5 5 4 4 4 4 4 4 5 6 6 7 7 9 9 10 11 11
7 6 5 5 5 5 5 4 4 4 4 4 4 4 4 4 4 4 5 6 6 7 8 8 9 10 11
7 5 6 6 5 5 4 2 2 3 4 4 4 3 3 3 3 4 5 5 6 6 7 9 8 9 9
8 7 7 7 6 4 3 2 3 3 3 3 3 3 3 3 3 3 4 4 5 6 6 8 8 8 8
7 7 6 6 5 4 3 2 2 2 2 2 3 3 2 2 2 3 3 3 3 4 6 7 8 8 8
6 5 5 4 4 3 2 2 1 2 2 2 2 2 2 1 2 1 2 2 2 3 4 5 7 7 7
4 4 4 3 2 2 2 2 2 2 2 1 1 2 1 1 1 1 1 1 1 2 3 4 5 6 6
3 3 3 2 2 1 1 1 1 2 2 1 1 1 1 1 1 1 0 1 1 1 1 2 3 4 5
2 2 1 1 1 1 -0 0 1 1 1 1 1 1 1 0 1 0 -0 -0 -0 0 0 1 2 2 2
1 1 1 1 1 -0 -0 -0 -0 -0 0 -0 -0 0 -0 -0 -0 -0 0 -0 -0 -0 0 0 0 1 1
2 1 0 -0 -0 -0 -1 -1 -1 -1 -1 -1 -1 -1 -1 -1 -1 -1 -0 -0 -0 -0 -0 1 1 1 1
1 1 -0 -1 -1 -1 -1 -2 -1 -2 -2 -2 -2 -2 -2 -2 -1 -1 -1 -1 -0 -0 0 1 1 1 1
0 0 -0 -1 -2 -2 -2 -2 -2 -2 -2 -2 -2 -3 -2 -1 -1 -2 -2 -1 -1 -0 -0 -1 0 1 1
-0 -0 -0 -1 -3 -3 -4 -3 -4 -3 -3 -2 -3 -2 -6 -7 -2 -2 -2 -2 -1 -1 -1 -1 -1 -0 -0
Height
811 815 819 823 824 826 827 825 826 826 826 825 825 826 825 823 822 820 814 810 807 802 795 790 785 784 782
807 810 816 818 821 823 822 824 825 823 824 824 821 823 823 822 817 816 813 809 804 800 792 786 784 781 780
803 807 811 813 815 818 819 822 823 820 818 820 818 819 821 819 817 815 812 808 803 799 793 787 784 781 778
799 802 806 809 812 814 816 819 818 817 817 819 819 819 819 816 815 812 810 805 803 798 795 792 789 781 778
795 800 803 804 805 809 811 813 814 812 812 812 813 816 815 814 814 813 810 804 803 800 797 797 794 791 787
793 795 797 800 802 804 808 811 812 811 809 811 811 814 813 814 813 811 808 805 804 801 799 797 796 795 793
786 790 792 794 797 802 805 808 806 808 810 812 812 812 811 811 810 809 810 805 805 803 803 801 798 798 800
783 790 792 792 794 799 803 804 805 806 809 809 810 810 810 810 808 805 807 804 806 805 805 803 800 802 804
781 787 788 791 792 796 799 803 804 806 806 808 807 808 808 808 806 805 805 802 804 806 808 805 804 804 806
781 785 785 788 791 795 796 798 802 804 804 807 806 809 807 806 805 805 803 804 804 805 808 806 808 807 808
776 779 782 784 788 791 793 797 799 801 802 805 805 805 808 807 803 804 804 804 806 808 809 807 808 810 812
773 776 779 782 784 787 790 792 794 797 798 801 802 802 806 804 802 801 802 807 807 809 810 808 809 812 814
770 773 777 780 781 785 787 789 792 795 798 799 799 798 804 802 804 802 801 806 807 808 808 807 809 812 814
768 771 774 777 779 782 783 785 790 791 792 795 796 798 797 799 801 802 803 806 806 805 805 805 808 811 813
764 766 769 773 776 778 780 783 785 787 789 791 792 794 795 797 797 799 803 805 804 804 803 804 806 809 811
761 762 765 767 771 775 778 781 783 783 787 788 790 791 792 794 796 799 802 803 802 802 803 804 805 806 808
756 758 761 765 767 771 775 779 780 782 784 785 786 786 788 795 797 798 800 800 800 800 801 803 804 806 807
Wind_Speed
14 16 17 16 14 13 11 9 10 9 8 7 9 9 8 11 13 17 17 21 21 26 26 25 18 16 11
13 15 16 17 16 13 10 10 9 8 9 6 6 8 10 12 13 16 17 20 19 24 23 21 16 10 8
12 15 15 15 14 12 11 10 10 9 8 9 8 10 11 12 13 14 16 17 16 19 22 19 10 9 4
11 10 12 11 13 12 11 9 8 6 6 7 8 11 11 10 11 11 13 15 13 18 13 17 15 17 7
11 9 11 10 13 10 9 7 7 6 4 5 6 9 8 7 8 10 12 12 10 14 11 8 10 13 18
13 10 13 11 12 10 7 4 2 2 1 1 4 5 5 5 6 8 11 10 8 10 14 9 9 12 15
16 15 12 14 12 11 11 8 4 1 3 4 3 4 4 5 6 7 10 8 6 5 12 9 8 13 14
9 10 10 10 11 9 10 8 5 5 6 3 4 4 4 5 5 6 6 5 5 4 5 10 12 15 14
9 9 9 9 9 10 11 8 3 3 5 4 3 4 5 5 6 4 1 2 4 4 3 7 14 16 17
13 12 11 10 10 11 10 11 5 3 6 7 2 2 2 0 3 0 2 2 3 3 3 5 7 13 15
13 11 11 11 11 10 8 10 9 6 4 8 5 2 2 2 3 3 1 3 2 2 3 5 5 6 11
15 14 14 13 12 12 12 12 11 10 9 11 4 3 3 1 0 3 2 3 3 2 3 5 6 7 7
19 18 16 14 14 13 12 10 11 12 12 12 11 9 9 3 0 2 2 4 6 5 3 4 4 5 7
22 17 16 16 16 14 12 10 10 10 10 11 11 12 9 8 7 5 3 1 1 7 7 5 5 6 6
20 19 18 17 16 15 12 12 10 9 10 9 9 8 8 7 3 6 8 7 4 3 3 5 8 10 9
22 22 21 19 18 16 14 13 12 10 9 10 10 7 5 5 9 10 6 5 4 5 5 5 5 7 9
24 23 20 18 19 18 15 13 11 11 11 11 11 8 3 1 1 6 7 4 4 5 6 7 5 4 5
Wind_Direction
202 205 206 207 214 229 239 267 279 276 264 264 265 283 303 317 329 332 338 341 337 340 334 331 325 313 289
190 190 201 208 218 232 253 264 274 275 269 260 252 271 297 311 327 331 341 342 343 344 349 336 331 323 303
173 189 200 205 218 233 245 263 270 266 253 243 246 270 287 304 320 328 339 339 348 355 10 8 9 353 346
174 170 195 205 214 228 235 253 260 263 257 260 265 265 282 297 311 327 333 341 348 8 20 50 58 41 76
172 179 188 186 202 214 225 244 260 251 248 256 259 264 270 290 309 329 338 341 349 8 21 58 56 68 74
196 202 205 206 204 208 225 213 209 203 78 289 273 267 281 294 307 329 340 340 350 12 27 118 84 95 97
209 219 214 215 208 200 208 201 179 244 317 292 273 284 281 285 300 328 338 342 356 22 32 124 113 124 120
223 238 224 205 202 222 208 196 205 234 243 243 285 284 288 282 290 317 321 351 13 43 56 94 149 136 130
201 208 196 193 199 200 180 176 185 214 213 223 248 288 294 290 296 278 307 66 53 52 85 79 118 144 139
187 191 189 194 205 216 208 191 176 204 210 203 212 276 236 158 29 141 148 121 93 90 117 116 97 130 131
186 185 187 191 200 205 206 208 208 211 195 196 197 186 294 307 9 7 165 159 153 123 109 126 134 125 153
192 192 194 194 193 197 201 205 212 216 207 208 217 202 230 282 63 34 192 205 193 202 157 121 139 154 161
203 202 203 198 191 194 200 206 214 216 220 223 228 237 246 236 341 1 72 231 228 215 194 175 153 161 172
209 199 196 191 193 197 194 198 209 214 215 227 226 223 230 238 239 239 267 253 7 223 222 218 219 212 205
205 197 193 195 196 197 199 198 197 198 203 206 204 209 216 227 229 248 248 244 235 228 214 231 237 235 229
211 205 200 198 195 195 201 205 201 194 185 187 188 185 204 242 236 238 236 239 215 220 231 262 257 238 232
213 211 205 200 191 193 198 202 200 192 189 186 180 169 98 144 188 195 200 190 177 202 219 238 248 235 243